Location: Platte
(43.3870°N, 98.8440°W)
Time: 00:19:22
(UTC-05:00)

Cosmos 1898 Rocket - Pass Details

Date: 21 May 2018
Orbit: 754 x 784 km, 74.0° (Epoch: 21 August)

Event Time Altitude Azimuth Distance (km) Brightness Sun altitude
Rises 21:53:47 0° 344° (NNW) 3,252 7.8 -9.0°
Reaches altitude 10° 21:56:16 10° 351° (N) 2,326 6.8 -9.3°
Maximum altitude 22:01:19 44° 64° (ENE) 1,066 4.1 -10.0°
Enters shadow 22:05:37 14° 133° (SE) 2,062 5.0 -10.6°
